Location: ??????????
(54.8537°N, 38.8755°E)
Time: 23:27:50
(UTC+00:00)

Tiros 1 - Pass Details

Date: 20 September 2024
Orbit: 623 x 654 km, 48.4° (Epoch: 09 October)

Event Time Altitude Azimuth Distance (km) Brightness Sun altitude
Rises 16:50:27 0° 271° (W) 2,909 12.0 -12.5°
Reaches altitude 10° 16:53:47 10° 246° (WSW) 2,004 10.3 -13.0°
Maximum altitude 16:56:07 14° 215° (SW) 1,764 9.6 -13.3°
Drops below altitude 10° 16:58:26 10° 185° (S) 2,008 9.5 -13.6°
Enters shadow 17:00:20 - 168° (SSE) 2,473 9.8 -13.8°
Sets 17:01:47 0° 160° (SSE) 2,919 - -14.0°
